Location: Syracuse
(43.0480°N, 76.1480°W)
Time: 19:39:22
(UTC-05:00)

Daily predictions for brighter satellites

Satellite Brightness Start Highest point End
(mag) Time Altitude Azimuth Time Altitude Azimuth Time Altitude Azimuth
SPOT 3 Rocket 4.5 18:03:52 10° S 18:08:57 56° WSW 18:14:06 10° NNW
Cosmos 2082 Rocket 3.6 18:08:07 10° SW 18:13:28 41° WNW 18:18:52 10° NNE
Cosmos 1461 3.9 18:12:23 10° N 18:15:47 25° NE 18:19:11 10° ESE
Cosmos 1484 Rocket 3.5 18:11:55 10° S 18:15:52 61° W 18:19:48 10° NNW
SL-16 R/B 2.6 18:11:25 10° NNW 18:16:51 44° ENE 18:22:14 10° SE
CENTAUR R/B 3.2 18:11:06 10° NW 18:18:59 86° SW 18:27:23 10° SSE
Cosmos 2360 4.4 18:14:06 10° NNW 18:19:52 85° WSW 18:25:35 10° SSE
Cosmos 1633 4.2 18:27:08 10° ESE 18:29:20 15° E 18:31:31 10° NE
NOSS 2-2 (E) 3.6 18:26:01 10° SW 18:30:06 84° NW 18:34:54 10° NE
SKYMED 2 4.0 18:26:40 10° N 18:31:00 68° WNW 18:35:18 10° SSW
Cosmos 1975 Rocket 3.1 18:26:57 10° N 18:31:17 81° W 18:35:36 10° S
Cosmos 44 Rocket 3.3 18:26:35 10° NW 18:31:23 81° WSW 18:36:03 10° SSE
HJ-1C 4.3 18:29:03 10° SE 18:31:58 28° ENE 18:34:55 10° N
Cosmos 2322 Rocket 2.2 18:30:49 10° NNW 18:36:24 63° ENE 18:41:57 10° SE
Okean 1 3.7 18:32:54 10° N 18:36:45 40° ENE 18:40:35 10° SSE
Cosmos 1340 3.7 18:36:46 10° NNE 18:39:56 24° ENE 18:43:05 10° SE
Nadezhda 1 Rocket 3.9 18:37:51 10° N 18:43:59 87° E 18:50:03 10° S
Meteor 1-28 Rocket 4.0 18:40:24 10° N 18:44:07 56° WNW 18:47:51 10° SSW
CZ-2D R/B 4.3 18:47:17 18° ESE 18:48:57 24° ENE 18:52:05 10° NNE
Tiangong 2 1.0 18:46:13 10° W 18:49:18 74° S 18:50:56 25° ESE
Cosmos 1536 Rocket 3.7 18:45:43 10° N 18:50:03 50° ENE 18:54:24 10° SSE
NOSS 2-2 (D) 4.0 18:46:03 10° SW 18:50:04 63° NW 18:54:49 10° NNE
Cosmos 1818 4.0 18:45:09 10° S 18:50:09 39° ESE 18:54:45 12° NE
Meteor 1-25 Rocket 4.2 18:45:34 10° S 18:51:09 86° ESE 18:56:51 10° N
Cosmos 2181 Rocket 4.3 18:46:07 10° N 18:52:04 45° ENE 18:58:03 10° SSE
Resurs 01 Rocket 1.9 18:48:45 10° SE 18:52:57 45° ENE 18:57:10 10° N
DNEPR-1 R/B 3.4 18:49:45 10° NNW 18:54:04 72° NE 18:58:09 11° SE
Helios 1B rocket 4.3 18:56:57 15° SE 18:56:57 15° SE 18:58:03 10° SE
COSMOS 2428 4.0 18:51:25 10° N 18:55:33 20° NE 18:56:56 18° ENE
Meteor 1-11 Rocket 4.2 18:54:40 10° SSE 18:59:54 38° E 19:05:16 10° NNE
Cosmos 44 3.4 18:55:51 10° NW 19:00:16 65° WSW 19:04:31 10° SSE
H-2A R/B 2.9 18:58:42 10° SE 19:02:14 44° ENE 19:05:48 10° N
DELTA 2 R/B (1) 3.8 18:57:01 10° W 19:02:34 62° S 19:05:58 23° ESE
FENGYUN 3A 3.6 18:57:45 10° SSE 19:03:08 73° ENE 19:08:33 10° N
deb Kosmos-1763 4.2 19:04:22 10° SSW 19:08:10 80° WNW 19:11:59 10° NNE
Cosmos 2237 Rocket 4.3 19:09:08 10° NNE 19:10:13 10° NE 19:10:17 10° NE
Cosmos 1812 3.8 19:07:07 10° NNW 19:10:50 47° W 19:14:32 10° SSW
Cosmos 676 Rocket 3.9 19:10:47 10° S 19:15:54 67° ESE 19:21:06 10° NNE
Cosmos 407 Rocket 3.5 19:11:04 10° SSW 19:16:17 86° WNW 19:21:38 10° NNE
Cosmos 1709 Rocket 3.9 19:11:35 10° S 19:17:50 81° E 19:24:02 10° N
Resurs 1-3 3.5 19:16:14 10° SSE 19:20:36 75° ENE 19:25:00 10° N
USA 186 4.4 19:25:49 10° N 19:25:49 10° N 19:25:53 10° N
Cosmos 1300 Rocket 3.4 19:20:55 10° S 19:25:16 67° E 19:29:41 10° NNE
ATLAS 2A CENTAUR R/B 4.3 19:26:54 10° S 19:28:22 11° SSE 19:29:17 11° SSE
Cosmos 2360 Rocket 2.1 19:24:21 10° NNW 19:30:00 67° ENE 19:32:44 31° SE
SAR-Lupe-1 4.2 19:33:09 58° NNE 19:33:09 58° NNE 19:36:13 10° N
Cosmos 2219 Rocket 3.6 19:29:51 10° N 19:33:20 21° NE 19:33:20 21° NE
Cosmos 1602 3.6 19:30:42 10° S 19:34:33 88° W 19:38:29 10° N
Cosmos 2208 Rocket 4.5 19:30:13 10° N 19:35:24 41° ENE 19:35:31 41° ENE
SAR-Lupe-4 3.4 19:36:35 78° S 19:36:47 87° WSW 19:40:23 10° NNW
GEOS 3 Rocket 4.4 19:35:51 10° NNE 19:40:53 51° NW 19:45:58 10° WSW
ALOS 3.4 19:38:02 10° S 19:42:28 43° W 19:46:57 10° NNW
Cosmos 1140 Rocket 3.3 19:41:59 10° SSW 19:47:05 77° ESE 19:49:24 33° NNE
Cosmos 1238 Rocket 3.6 19:44:23 10° NNW 19:46:37 35° NW 19:46:37 35° NW
Cosmos 1833 4.1 19:41:43 10° SSW 19:47:27 86° ESE 19:51:45 18° NNE
Spot 1 4.0 19:49:08 61° SSW 19:49:44 76° WSW 19:53:51 10° NNW
Spot 2 Rocket 4.3 19:45:17 10° S 19:50:11 51° W 19:55:08 10° NNW
Cosmos 2333 Rocket 3.7 19:46:53 10° N 19:50:08 22° NNE 19:50:08 22° NNE
Okean 1 Rocket 3.1 19:47:39 10° S 19:52:08 83° W 19:56:40 10° N
Cosmos 1461 4.3 19:51:20 10° NW 19:54:57 33° WSW 19:56:31 25° SSW
SL-16 R/B 4.1 19:55:57 10° NW 20:00:43 28° WSW 20:05:28 10° SSW
Okean 1-7 Rocket 3.8 19:57:43 10° N 20:01:49 70° NW 20:01:49 70° NW
Helios 1A 3.5 20:02:04 54° SW 20:02:28 57° W 20:06:35 10° NNW
Cosmos 1633 4.3 20:00:40 10° SW 20:04:01 33° WNW 20:07:24 10° N
Cosmos 614 Rocket 4.3 19:59:01 10° SSW 20:02:46 50° S 20:02:46 50° S
Envisat 3.4 20:07:28 51° N 20:07:28 51° N 20:11:19 10° N
USA 229 DEB 3.9 20:03:09 10° NNW 20:10:07 53° NE 20:10:23 53° NE
USA 229 3.9 20:03:16 10° NNW 20:10:13 53° NE 20:10:27 52° NE
USA 215 4.5 20:23:42 26° NNE 20:24:44 28° N 20:30:03 10° NW
Resurs 01 Rocket 4.3 20:26:44 10° SW 20:29:40 17° W 20:32:37 10° NW
COSMOS 2428 3.4 20:34:45 10° NNW 20:39:00 51° NW 20:39:00 51° NW
BREEZE-M DEB (TANK) 4.3 20:41:38 10° WNW 20:44:45 60° W 20:44:45 60° W
Cosmos 2237 Rocket 4.1 20:50:07 10° NNW 20:52:08 22° N 20:52:08 22° N
Cosmos 2360 Rocket 4.5 21:09:42 10° WNW 21:13:23 18° W 21:14:35 17° WSW
Cosmos 2219 Rocket 4.2 21:13:00 10° NNW 21:15:05 23° NW 21:15:05 23° NW
Cosmos 2333 Rocket 4.5 21:30:33 10° NNW 21:32:10 19° NW 21:32:10 19° NW
